Location: Estes Park
(40.3770°N, 105.5210°W)
Time: 00:38:19
(UTC-06:00)

Vanguard 3 - Visible Passes

Search period start: 22 October 2017 00:00
Search period end: 01 November 2017 00:00
Orbit: 510 x 3263 km, 33.3° (Epoch: 21 October)

Date Brightness Start Highest point End Pass type
(mag) Time Alt. Az. Time Alt. Az. Time Alt. Az.
22 Oct 11.1 01:37:23 11° ESE 01:37:23 11° ESE 01:37:49 10° ESE visible
22 Oct 9.9 03:41:59 38° S 03:43:26 38° SSE 03:53:18 10° E visible
22 Oct 9.1 05:46:34 17° WSW 05:57:11 55° S 06:04:54 10° E visible
23 Oct 10.5 02:32:27 27° SE 02:32:27 27° SE 02:38:57 10° E visible
23 Oct 9.5 04:37:03 37° SSW 04:42:26 51° SSE 04:51:44 10° E visible
23 Oct 8.9 06:43:23 10° WSW 06:55:45 57° S 07:02:39 10° ESE visible
24 Oct 11.1 01:22:53 11° ESE 01:22:53 11° ESE 01:23:19 10° E visible
24 Oct 9.9 03:27:28 44° SSE 03:27:28 44° SSE 03:38:08 10° E visible
24 Oct 9.1 05:32:03 24° WSW 05:41:20 59° S 05:49:46 10° E visible
25 Oct 10.5 02:17:50 27° ESE 02:17:50 27° ESE 02:23:48 10° E visible
25 Oct 9.5 04:22:25 46° SSW 04:26:22 56° SSE 04:36:31 10° E visible
25 Oct 9.0 06:27:00 11° W 06:40:01 58° S 06:47:30 10° ESE visible
26 Oct 11.2 01:08:11 10° E 01:08:11 10° E 01:08:20 10° E visible
26 Oct 9.9 03:12:46 47° SE 03:12:46 47° SE 03:22:48 10° E visible
26 Oct 9.2 05:17:20 31° WSW 05:25:23 62° S 05:34:34 10° E visible
27 Oct 10.6 02:03:04 27° ESE 02:03:04 27° ESE 02:08:25 10° E visible
27 Oct 9.5 04:07:38 55° SSW 04:10:10 60° S 04:21:13 10° E visible
27 Oct 9.1 06:12:13 16° W 06:24:09 59° S 06:32:19 10° ESE visible
28 Oct 9.9 02:57:55 48° SE 02:57:55 48° SE 03:07:22 10° E visible
28 Oct 9.3 05:02:29 38° WSW 05:09:19 64° S 05:19:17 10° ESE visible
29 Oct 10.7 01:48:10 25° E 01:48:10 25° E 01:52:52 10° E visible
29 Oct 9.5 03:52:44 62° S 03:53:52 63° S 04:05:49 10° E visible
29 Oct 9.2 05:57:18 21° W 06:08:11 59° SSW 06:17:04 10° ESE visible
30 Oct 10.1 02:42:59 46° ESE 02:42:59 46° ESE 02:51:49 10° E visible
30 Oct 9.4 04:47:33 46° WSW 04:53:09 65° S 05:03:57 10° ESE visible
30 Oct 9.3 06:53:10 10° W 07:06:30 45° SSW 07:14:19 10° SE visible
31 Oct 10.8 01:33:13 22° E 01:33:13 22° E 01:37:10 10° E visible
31 Oct 9.6 03:37:47 66° S 03:37:47 66° S 03:50:20 10° E visible
31 Oct 9.3 05:42:21 26° W 05:52:05 58° SSW 06:01:43 10° ESE visible
